Date String (YYYY-MM-DD hh:mm:ss) UTC,Instrument flags,Ambient pressure (hPa),Sample flow (lpm),Bypass flow (lpm),Sample temperature (°C),Ambient temperature (°C),ASC tube jacket temperature (°C),LED temperature (°C),Box temperature (°C),Sample RH (%),Span deviation,Mass concentration (μg/m³),Mass concentration (μg/m³),Mass concentration (μg/m³)
DateTimeUTC,F1_M11,P_M11,Q1_M11,Q2_M11,T1_M11,T2_M11,T3_M11,T4_M11,T5_M11,U1_M11,ZSPAN_M11,X0_M11,X2_M11,X1_M11
2022-04-20 22:00:00,,0818.2,4.99,0.00,29.4,28.8,00.0,38.2,31.2,07.2,0000.0,0030.30,0009.24,0003.50
2022-04-20 22:01:00,,0818.3,5.02,0.00,29.4,28.8,00.0,38.2,31.2,07.3,0000.0,0029.78,0009.24,0003.52
2022-04-20 22:02:00,,0818.3,5.00,0.00,29.4,28.8,00.0,38.2,31.2,07.2,0000.0,0029.60,0009.29,0003.53
2022-04-20 22:03:00,,0818.2,4.99,0.00,29.4,28.7,00.0,38.2,31.2,07.1,0000.0,0028.71,0009.29,0003.54
2022-04-20 22:04:00,,0818.1,4.99,0.00,29.4,28.7,00.0,38.2,31.2,06.9,0000.0,0029.83,0009.18,0003.55
2022-04-20 22:05:00,,0818.1,5.00,0.00,29.4,28.7,00.0,38.2,31.2,07.1,0000.0,0029.23,0009.11,0003.55
2022-04-20 22:06:00,,0818.0,5.02,0.00,29.4,28.7,00.0,38.3,31.2,07.1,0000.0,0029.84,0009.17,0003.55
2022-04-20 22:07:00,,0818.2,5.00,0.00,29.4,28.7,00.0,38.3,31.1,07.0,0000.0,0029.93,0009.15,0003.55
2022-04-20 22:08:00,,0818.2,4.99,0.00,29.4,28.7,00.0,38.3,31.2,07.2,0000.0,0029.92,0009.20,0003.59
2022-04-20 22:09:00,,0818.3,5.01,0.00,29.4,28.8,00.0,38.3,31.2,07.1,0000.0,0029.17,0009.23,0003.61
2022-04-20 22:10:00,,0818.3,4.98,0.00,29.5,28.8,00.0,38.3,31.2,07.2,0000.0,0028.61,0009.20,0003.64
2022-04-20 22:11:00,,0818.2,5.01,0.00,29.5,28.8,00.0,38.3,31.2,07.1,0000.0,0028.51,0009.17,0003.66
2022-04-20 22:12:00,,0818.1,4.99,0.00,29.5,28.8,00.0,38.3,31.2,07.0,0000.0,0029.00,0009.20,0003.68
2022-04-20 22:13:00,,0818.2,4.99,0.00,29.5,28.8,00.0,38.3,31.2,07.1,0000.0,0029.74,0009.22,0003.69
2022-04-20 22:14:00,,0818.3,5.02,0.00,29.5,28.8,00.0,38.3,31.2,07.2,0000.0,0030.06,0009.24,0003.69
2022-04-20 22:15:00,,0818.2,4.99,0.00,29.5,28.8,00.0,38.3,31.2,07.2,-000.7,0029.75,0009.27,0003.68
2022-04-20 22:16:00,,0818.3,5.00,0.00,29.5,28.8,00.0,38.3,31.2,07.0,-000.8,0029.75,0009.33,0003.71
2022-04-20 22:17:00,,0818.3,5.02,0.00,29.5,28.8,00.0,38.3,31.2,06.9,-000.2,0029.38,0009.39,0003.75
2022-04-20 22:18:00,,0818.3,5.00,0.00,29.5,28.8,00.0,38.3,31.2,07.0,-000.7,0029.37,0009.45,0003.78
2022-04-20 22:19:00,,0818.3,5.00,0.00,29.5,28.8,00.0,38.3,31.2,07.1,-000.7,0030.05,0009.28,0003.80
2022-04-20 22:20:00,,0818.3,4.99,0.00,29.5,28.8,00.0,38.4,31.2,07.1,-000.5,0030.01,0009.16,0003.80
2022-04-20 22:21:00,,0818.3,4.99,0.00,29.5,28.8,00.0,38.4,31.3,07.1,-000.0,0030.39,0009.19,0003.81
2022-04-20 22:22:00,,0818.4,5.01,0.00,29.5,28.9,00.0,38.4,31.3,07.2,0001.4,0030.48,0009.19,0003.85
2022-04-20 22:23:00,,0818.4,4.99,0.00,29.5,28.9,00.0,38.4,31.3,07.3,0001.2,0030.73,0009.22,0003.87
2022-04-20 22:24:00,,0818.3,4.99,0.00,29.5,28.9,00.0,38.4,31.3,07.3,0001.2,0031.19,0009.26,0003.88
2022-04-20 22:25:00,,0818.3,5.00,0.00,29.6,29.0,00.0,38.4,31.3,07.1,0002.4,0031.82,0009.31,0003.92
2022-04-20 22:26:00,,0818.4,5.02,0.00,29.6,28.9,00.0,38.4,31.3,07.0,0003.3,0031.32,0009.42,0003.96
2022-04-20 22:27:00,,0818.4,5.00,0.00,29.6,28.9,00.0,38.4,31.3,07.0,0003.9,0031.45,0009.39,0003.97
2022-04-20 22:28:00,,0818.3,4.99,0.00,29.6,28.9,00.0,38.4,31.3,07.0,0002.3,0032.20,0009.28,0003.96
2022-04-20 22:29:00,,0818.4,5.02,0.00,29.6,28.9,00.0,38.4,31.4,06.9,0000.0,0032.20,0009.28,0003.96
2022-04-20 22:30:00,,0818.4,4.99,0.00,29.6,28.9,00.0,38.4,31.4,07.0,0000.0,0031.87,0009.38,0003.96
2022-04-20 22:31:00,,0818.4,5.00,0.00,29.6,28.9,00.0,38.5,31.3,07.0,0000.0,0034.16,0009.48,0003.97
2022-04-20 22:32:00,,0818.4,5.01,0.00,29.6,28.9,00.0,38.5,31.3,07.2,0000.0,0034.98,0009.47,0003.95
2022-04-20 22:33:00,,0818.4,4.99,0.00,29.6,28.9,00.0,38.5,31.3,07.0,0000.0,0035.53,0009.45,0003.93
2022-04-20 22:34:00,,0818.4,5.01,0.00,29.6,28.8,00.0,38.5,31.3,07.0,0000.0,0034.99,0009.44,0003.93
2022-04-20 22:35:00,,0818.3,4.98,0.00,29.6,28.8,00.0,38.5,31.3,07.2,0000.0,0034.45,0009.42,0003.91
2022-04-20 22:36:00,,0818.3,4.99,0.00,29.6,28.9,00.0,38.5,31.3,06.9,0000.0,0034.00,0009.31,0003.88
2022-04-20 22:37:00,,0818.4,5.01,0.00,29.6,28.9,00.0,38.5,31.4,07.0,0000.0,0033.24,0009.03,0003.84
2022-04-20 22:38:00,,0818.4,5.00,0.00,29.6,28.9,00.0,38.5,31.4,07.1,0000.0,0033.12,0009.05,0003.82
2022-04-20 22:39:00,,0818.4,4.99,0.00,29.6,28.9,00.0,38.5,31.4,07.1,0006.2,0033.09,0009.08,0003.80
2022-04-20 22:40:00,,0818.3,4.99,0.00,29.6,29.0,00.0,38.5,31.4,07.2,0004.2,0033.53,0009.02,0003.77
2022-04-20 22:41:00,,0818.4,5.00,0.00,29.7,29.0,00.0,38.5,31.4,07.1,0003.6,0034.23,0009.00,0003.74
2022-04-20 22:42:00,,0818.4,5.01,0.00,29.7,29.0,00.0,38.5,31.4,07.1,0003.7,0034.15,0009.10,0003.75
2022-04-20 22:43:00,,0818.5,4.99,0.00,29.7,29.0,00.0,38.5,31.4,07.0,0005.0,0034.20,0009.19,0003.74
2022-04-20 22:44:00,,0818.4,5.01,0.00,29.7,29.0,00.0,38.5,31.4,07.1,0003.9,0033.48,0009.26,0003.73
2022-04-20 22:45:00,,0818.4,4.99,0.00,29.7,29.0,00.0,38.5,31.4,07.1,0004.7,0033.74,0009.26,0003.71
2022-04-20 22:46:00,,0818.4,5.01,0.00,29.7,29.0,00.0,38.5,31.4,07.1,0004.3,0034.26,0009.33,0003.71
2022-04-20 22:47:00,,0818.4,5.00,0.00,29.7,29.0,00.0,38.6,31.5,07.1,0000.0,0034.22,0009.42,0003.70
2022-04-20 22:48:00,,0818.3,4.98,0.00,29.7,29.1,00.0,38.6,31.5,07.2,0000.0,0036.02,0009.58,0003.71
2022-04-20 22:49:00,,0818.4,5.02,0.00,29.7,29.1,00.0,38.6,31.5,07.2,0000.0,0036.41,0009.54,0003.72
2022-04-20 22:50:00,,0818.4,4.99,0.00,29.8,29.2,00.0,38.6,31.5,07.1,0000.0,0035.52,0009.56,0003.71
2022-04-20 22:51:00,,0818.5,5.00,0.00,29.8,29.2,00.0,38.6,31.6,07.0,0000.0,0034.65,0009.55,0003.70
2022-04-20 22:52:00,,0818.5,5.01,0.00,29.8,29.2,00.0,38.6,31.6,07.1,0000.0,0033.81,0009.58,0003.70
2022-04-20 22:53:00,,0818.5,4.98,0.00,29.8,29.1,00.0,38.6,31.5,07.2,0000.0,0032.92,0009.56,0003.68
2022-04-20 22:54:00,,0818.4,5.00,0.00,29.8,29.1,00.0,38.6,31.5,07.2,0000.0,0033.04,0009.52,0003.68
2022-04-20 22:55:00,,0818.5,5.02,0.00,29.8,29.1,00.0,38.7,31.6,07.1,0000.0,0033.44,0009.39,0003.67
2022-04-20 22:56:00,,0818.5,4.99,0.00,29.8,27.9,00.0,38.7,31.3,07.1,0000.0,0034.13,0009.35,0003.66
2022-04-20 22:57:00,,0818.6,4.99,0.00,29.6,25.9,00.0,38.6,30.9,07.1,0000.0,0034.44,0009.20,0003.62
2022-04-20 22:58:00,,0818.6,5.02,0.00,29.5,25.7,00.0,38.6,30.8,07.2,0000.0,0034.27,0009.17,0003.59
2022-04-20 22:59:00,,0818.6,4.98,0.00,29.5,26.1,00.0,38.5,30.9,07.2,0000.0,0034.34,0009.10,0003.56
